Tracking 19634 objects as of 21-May-2019
HD Live streaming from Space Station
objects crossing your sky now

TITAN 4B CENTAUR R/B

Track TITAN 4B CENTAUR R/B now!
10-day predictions


NORAD ID: 25725
Int'l Code: 1999-023B
Perigee: 714.7 km
Apogee: 5,152.9 km
Inclination: 28.3 °
Period: 148.9 minutes
Semi major axis: 9304 km
RCS: Unknown
Launch date: April 30, 1999
Source: United States (US)
Launch site: AIR FORCE EASTERN TEST RANGE (AFETR)

Note: This is a ROCKET BODY
aabbcc
Your satellite tracking list
Your tracking list is empty




NASA's NSSDC Master Catalog

Two Line Element Set (TLE):
1 25725U 99023B   19140.21658374 +.00000053 +00000-0 +43448-4 0  9990
2 25725 028.3142 081.0913 2384917 149.3252 227.1377 09.67258497006647
Source of the keplerian elements: McCants